Location: Bothell
(47.7630°N, 122.2040°W)
Time: 16:15:57
(UTC-08:00)

Amateur Radio Satellites - All Passes

Search period start: 22 February 2017 15:45
Search period end: 23 February 2017 15:45
Location: Bothell, 47.7630°N, 122.2040°W

Satellite Date Start Highest point End Downlink Frequencies (MHz)
Time Altitude Azimuth
ITAMSAT 1 22 Feb 15:53:13 15:56:42 18° 270° (W) 16:00:13 435.822/435.867
XW-2D 22 Feb 15:57:37 15:58:28 11° 59° (ENE) 15:59:19 145.860 - 145.880
ITUPSAT 1 22 Feb 15:59:51 16:04:19 39° 293° (WNW) 16:08:45 437.325
XW-2B 22 Feb 16:02:04 16:03:24 12° 59° (ENE) 16:04:43 145.730 - 145.750
Tancredo 1 22 Feb 16:06:26 16:08:28 16° 223° (SW) 16:10:29 437.200
BEESAT 22 Feb 16:08:45 16:13:00 32° 295° (WNW) 16:17:13 436.000
PCSat 22 Feb 16:09:43 16:14:04 25° 109° (ESE) 16:18:27 145.827
XW-2C 22 Feb 16:09:46 16:11:49 14° 61° (ENE) 16:13:51 145.795 - 145.815
CUBESAT XI-V 22 Feb 16:11:16 16:14:58 23° 93° (E) 16:18:39 437.345
KKS-1 22 Feb 16:13:59 16:18:09 37° 98° (E) 16:22:18 437.445
LilacSat-2 22 Feb 16:22:21 16:25:08 19° 64° (ENE) 16:27:57 437.200
NUDT-PHONESAT 22 Feb 16:32:09 16:34:51 19° 64° (ENE) 16:37:33 437.300
CUTE-I 22 Feb 16:36:46 16:41:31 34° 64° (ENE) 16:46:18 437.470
AO-7 22 Feb 16:46:03 16:51:25 18° 273° (W) 16:56:50 .
RS-15 22 Feb 16:47:58 16:58:08 35° 105° (ESE) 17:08:35 29.354- 29.394
BEESAT 3 22 Feb 16:52:08 16:54:31 15° 248° (WSW) 16:56:54 437.485
M-CUBED/EXP-1 PRIME 22 Feb 16:52:14 16:54:52 18° 100° (E) 16:57:36 437.505
HO-68 22 Feb 16:53:07 16:58:10 21° 50° (NE) 17:03:12 435.675
STARS 22 Feb 16:56:44 17:01:01 46° 99° (E) 17:05:17 437.465
MOZHAYETS 4 22 Feb 16:57:34 17:01:24 26° 296° (WNW) 17:05:13
DOVE 4 22 Feb 17:06:24 17:10:27 57° 72° (ENE) 17:14:33 437.250
CUTE 1.7 + AOD 2 22 Feb 17:21:17 17:23:03 12° 58° (ENE) 17:24:47 437.475
BEESAT 2 22 Feb 17:23:14 17:25:56 17° 247° (WSW) 17:28:36 435.950
XW-2F 22 Feb 17:25:28 17:29:18 84° 76° (ENE) 17:33:11 145.980 - 146.000
KAITUO 1B 22 Feb 17:25:56 17:29:43 73° 76° (ENE) 17:33:33 145.475/437.950
XW-2D 22 Feb 17:28:12 17:32:02 85° 257° (WSW) 17:35:57 145.860 - 145.880
XW-2B 22 Feb 17:33:11 17:37:01 78° 257° (WSW) 17:40:55 145.730 - 145.750
XW-2C 22 Feb 17:41:44 17:45:33 61° 260° (W) 17:49:24 145.795 - 145.815
CUBESAT XI-V 22 Feb 17:48:10 17:52:32 43° 291° (WNW) 17:56:52 437.345
KKS-1 22 Feb 17:50:49 17:54:34 27° 296° (WNW) 17:58:20 437.445
PCSat 22 Feb 17:51:44 17:57:05 59° 309° (NW) 18:02:29 145.827
LilacSat-2 22 Feb 17:55:28 17:59:09 41° 262° (W) 18:02:53 437.200
NUDT-PHONESAT 22 Feb 18:04:59 18:08:32 39° 262° (W) 18:12:07 437.300
CUTE-I 22 Feb 18:16:31 18:21:29 39° 263° (W) 18:26:31 437.470
ZACube-1 22 Feb 18:20:55 18:21:16 10° 55° (NE) 18:21:37 437.345
AAUSAT CUBESAT 2 22 Feb 18:21:42 18:24:23 17° 62° (ENE) 18:27:04 437.432
SEEDS 22 Feb 18:22:05 18:25:48 31° 67° (ENE) 18:29:33 437.485
M-CUBED/EXP-1 PRIME 22 Feb 18:26:03 18:29:28 41° 295° (WNW) 18:33:07 437.505
XW-2A 22 Feb 18:32:25 18:35:49 88° 66° (ENE) 18:39:15 145.665 - 145.685
STARS 22 Feb 18:33:41 18:37:05 22° 298° (WNW) 18:40:29 437.465
STRAND 1 22 Feb 18:37:00 18:40:56 21° 91° (E) 18:44:50 437.568
HO-68 22 Feb 18:37:43 18:44:54 82° 71° (ENE) 18:52:07 435.675
CUBEBUG 2 22 Feb 18:41:05 18:45:05 34° 67° (ENE) 18:49:13 437.445
DOVE 4 22 Feb 18:46:17 18:48:35 14° 271° (W) 18:50:54 437.250
CUTE 1.7 + AOD 2 22 Feb 18:53:56 18:58:14 87° 254° (WSW) 19:02:33 437.475
RS-15 22 Feb 18:57:22 19:09:27 83° 309° (NW) 19:21:58 29.354- 29.394
KAITUO 1B 22 Feb 19:03:40 19:04:15 10° 273° (W) 19:04:49 145.475/437.950
AO-73 22 Feb 19:07:26 19:11:02 24° 64° (ENE) 19:14:42 145.935
Oscar 11 22 Feb 19:17:59 19:21:37 26° 65° (ENE) 19:25:16 .
UWE-3 22 Feb 19:24:26 19:28:48 58° 72° (ENE) 19:33:20 435.000/436.395/437.385
PCSat 22 Feb 19:38:07 19:41:39 17° 331° (NNW) 19:45:12 145.827
ZACube-1 22 Feb 19:52:14 19:56:39 68° 73° (ENE) 20:01:12 437.345
AAUSAT CUBESAT 2 22 Feb 19:55:21 19:59:27 56° 260° (W) 20:03:33 437.432
SEEDS 22 Feb 19:57:48 20:01:29 29° 265° (W) 20:05:11 437.485
STRAND 1 22 Feb 20:15:24 20:20:29 57° 290° (WNW) 20:25:31 437.568
YUBILEINY 22 Feb 20:17:40 20:25:05 29° 62° (ENE) 20:32:26 435.215
CUBEBUG 2 22 Feb 20:17:54 20:21:44 28° 266° (W) 20:25:42 437.445
DELFI C3 22 Feb 20:19:39 20:23:16 35° 69° (ENE) 20:26:53 145.870
HO-68 22 Feb 20:28:07 20:33:26 22° 270° (W) 20:38:47 435.675
AO-73 22 Feb 20:42:49 20:47:02 42° 263° (W) 20:51:22 145.935
Oscar 11 22 Feb 20:53:36 20:57:36 36° 263° (W) 21:01:40 .
UWE-3 22 Feb 21:02:45 21:05:41 17° 271° (W) 21:08:40 435.000/436.395/437.385
UNISAT 6 22 Feb 21:12:30 21:15:33 17° 89° (E) 21:18:35 437.425
RS-15 22 Feb 21:12:38 21:24:02 41° 339° (NNW) 21:35:33 29.354- 29.394
TIGRISAT 22 Feb 21:13:48 21:16:45 16° 89° (E) 21:19:39 435.000
ZACube-1 22 Feb 21:30:57 21:33:27 15° 272° (W) 21:35:58 437.345
FO-29 22 Feb 21:43:20 21:49:29 25° 87° (E) 21:55:15 435.910
PRISM 22 Feb 21:54:35 21:58:40 90° 67° (ENE) 22:02:45 437.425
DELFI C3 22 Feb 21:55:01 21:58:09 22° 267° (W) 22:01:17 145.870
STRAND 1 22 Feb 21:57:50 21:58:36 10° 310° (NW) 21:59:21 437.568
SPROUT 22 Feb 21:59:45 22:00:58 11° 57° (ENE) 22:02:11 437.525
YUBILEINY 22 Feb 22:14:04 22:22:48 74° 265° (W) 22:31:26 435.215
SO-50 22 Feb 22:21:27 22:25:13 24° 115° (ESE) 22:28:57 436.795
ESTCUBE 1 22 Feb 22:25:01 22:29:29 62° 72° (ENE) 22:33:57 437.505/2401.250
50 SAT 22 Feb 22:36:59 22:39:21 17° 64° (ENE) 22:41:42 437.505
EO-79 22 Feb 22:47:48 22:50:04 14° 89° (E) 22:52:20 145.935-145.965
UNISAT 6 22 Feb 22:48:00 22:52:42 64° 287° (WNW) 22:57:20 437.425
TIGRISAT 22 Feb 22:49:11 22:53:53 67° 287° (WNW) 22:58:32 435.000
AIST 2D 22 Feb 23:02:29 23:05:38 28° 96° (E) 23:08:44 435.315
VELOX 1 22 Feb 23:02:50 23:07:06 53° 71° (ENE) 23:11:24 145.980
POLYITAN 1 22 Feb 23:03:40 23:06:53 20° 92° (E) 23:10:07 437.675
DX 1 22 Feb 23:04:25 23:08:05 27° 65° (ENE) 23:11:45 434.975-435.025
NANOSAT C BR1 22 Feb 23:05:54 23:09:04 20° 92° (E) 23:12:12 145.865
QB50P2 22 Feb 23:06:21 23:09:47 23° 93° (E) 23:13:13 145.880/145.840
PCSat 22 Feb 23:10:24 23:13:26 15° 24° (NNE) 23:16:28 145.827
O/OREOS (USA 219) 22 Feb 23:12:38 23:16:57 51° 110° (ESE) 23:21:21 437.305
UKube-1 22 Feb 23:22:05 23:25:49 30° 66° (ENE) 23:29:35 .
FO-29 22 Feb 23:27:28 23:35:19 79° 288° (WNW) 23:42:32 435.910
RS-15 22 Feb 23:29:22 23:40:38 37° 13° (NNE) 23:51:44 29.354- 29.394
SPROUT 22 Feb 23:31:55 23:36:10 83° 75° (ENE) 23:40:28 437.525
PRISM 22 Feb 23:32:06 23:33:19 11° 303° (WNW) 23:34:32 437.425
BUGSAT 1 22 Feb 23:48:18 23:51:16 18° 92° (E) 23:54:14 437.445
SO-50 23 Feb 00:00:50 00:05:24 54° 313° (NW) 00:09:56 436.795
ESTCUBE 1 23 Feb 00:03:53 00:06:42 16° 270° (W) 00:09:31 437.505/2401.250
50 SAT 23 Feb 00:08:57 00:12:14 37° 262° (W) 00:15:32 437.505
YUBILEINY 23 Feb 00:13:04 00:17:59 17° 287° (WNW) 00:22:53 435.215
DUCHIFAT 1 23 Feb 00:14:26 00:18:44 89° 104° (ESE) 00:23:00 145.980
Oscar 19 23 Feb 00:16:09 00:18:10 12° 86° (E) 00:20:10 437.125/150
EO-79 23 Feb 00:22:00 00:26:17 66° 287° (WNW) 00:30:32 145.935-145.965
UNISAT 6 23 Feb 00:28:01 00:28:28 10° 306° (NW) 00:28:54 437.425
TIGRISAT 23 Feb 00:28:44 00:29:40 11° 306° (NW) 00:30:35 435.000
AIST 2D 23 Feb 00:35:54 00:38:45 22° 293° (WNW) 00:41:33 435.315
POLYITAN 1 23 Feb 00:38:47 00:42:54 44° 290° (WNW) 00:46:59 437.675
Gurwin Techsat 1B 23 Feb 00:39:19 00:41:06 12° 85° (E) 00:42:53 435.225
DX 1 23 Feb 00:40:14 00:44:11 34° 263° (W) 00:48:08 434.975-435.025
VELOX 1 23 Feb 00:40:54 00:43:53 18° 269° (W) 00:46:52 145.980
NANOSAT C BR1 23 Feb 00:40:55 00:45:01 46° 290° (WNW) 00:49:05 145.865
QB50P2 23 Feb 00:41:43 00:45:43 39° 291° (WNW) 00:49:43 145.880/145.840
PCSat 23 Feb 00:53:00 00:58:15 46° 48° (NE) 01:03:28 145.827
O/OREOS (USA 219) 23 Feb 00:53:06 00:56:40 23° 310° (NW) 01:00:15 437.305
UKube-1 23 Feb 00:58:00 01:01:49 30° 264° (W) 01:05:39 .
SPROUT 23 Feb 01:11:35 01:12:41 11° 273° (W) 01:13:47 437.525
FO-29 23 Feb 01:13:35 01:19:07 22° 309° (NW) 01:24:26 435.910
BUGSAT 1 23 Feb 01:22:48 01:26:53 49° 289° (WNW) 01:30:59 437.445
ITUPSAT 1 23 Feb 01:31:54 01:36:31 48° 69° (ENE) 01:41:10 437.325
BEESAT 23 Feb 01:40:15 01:44:56 59° 71° (ENE) 01:49:40 436.000
RS-15 23 Feb 01:43:30 01:55:54 68° 44° (NE) 02:07:51 29.354- 29.394
SO-50 23 Feb 01:44:05 01:46:52 15° 335° (NNW) 01:49:38 436.795
DUCHIFAT 1 23 Feb 01:52:03 01:53:45 12° 302° (WNW) 01:55:27 145.980
Oscar 19 23 Feb 01:53:06 01:58:16 85° 104° (ESE) 02:03:24 437.125/150
Gurwin Techsat 1B 23 Feb 02:16:34 02:21:55 79° 104° (ESE) 02:27:15 435.225
ITAMSAT 1 23 Feb 02:21:51 02:25:30 19° 90° (E) 02:29:08 435.822/435.867
MOZHAYETS 4 23 Feb 02:24:47 02:29:20 56° 72° (ENE) 02:33:54
PCSat 23 Feb 02:36:40 02:41:31 34° 248° (WSW) 02:46:21 145.827
AO-7 23 Feb 02:47:17 02:54:16 29° 93° (E) 03:01:10 .
ITUPSAT 1 23 Feb 03:10:49 03:14:36 23° 267° (W) 03:18:25 437.325
KKS-1 23 Feb 03:14:59 03:19:16 52° 70° (ENE) 03:23:35 437.445
CUBESAT XI-V 23 Feb 03:17:30 03:21:42 34° 67° (ENE) 03:25:54 437.345
BEESAT 23 Feb 03:19:44 03:23:05 19° 269° (W) 03:26:29 436.000
Oscar 19 23 Feb 03:33:48 03:36:55 16° 304° (NW) 03:40:01 437.125/150
M-CUBED/EXP-1 PRIME 23 Feb 03:41:31 03:44:34 37° 65° (ENE) 03:47:37 437.505
STARS 23 Feb 03:56:16 04:00:35 63° 72° (ENE) 04:04:56 437.465
RS-15 23 Feb 03:56:37 04:08:00 47° 250° (WSW) 04:18:58 29.354- 29.394
Gurwin Techsat 1B 23 Feb 03:57:40 04:01:16 19° 303° (WNW) 04:04:51 435.225
ITAMSAT 1 23 Feb 04:00:15 04:05:27 67° 289° (WNW) 04:10:38 435.822/435.867
MOZHAYETS 4 23 Feb 04:03:36 04:06:50 19° 269° (W) 04:10:06
AO-85 23 Feb 04:05:02 04:07:55 17° 113° (ESE) 04:10:43 145.980
AO-7 23 Feb 04:39:27 04:47:46 74° 294° (WNW) 04:56:00 .
KKS-1 23 Feb 04:53:02 04:56:08 19° 268° (W) 04:59:16 437.445
CUBESAT XI-V 23 Feb 04:54:58 04:59:05 30° 265° (W) 05:03:13 437.345
DOVE 4 23 Feb 05:02:23 05:04:36 13° 88° (E) 05:06:53 437.250
SO-50 23 Feb 05:08:56 05:11:44 16° 25° (NNE) 05:14:30 436.795
XW-2C 23 Feb 05:12:57 05:14:17 11° 88° (E) 05:15:37 145.795 - 145.815
M-CUBED/EXP-1 PRIME 23 Feb 05:17:22 05:19:15 14° 262° (W) 05:21:08 437.505
LilacSat-2 23 Feb 05:26:02 05:28:37 17° 91° (E) 05:31:10 437.200
NUDT-PHONESAT 23 Feb 05:33:03 05:35:24 16° 91° (E) 05:37:45 437.300
STARS 23 Feb 05:34:49 05:37:21 15° 270° (W) 05:39:54 437.465
ITAMSAT 1 23 Feb 05:41:56 05:43:58 12° 308° (NW) 05:46:01 435.822/435.867
AO-85 23 Feb 05:43:30 05:47:57 68° 310° (NW) 05:52:07 145.980
STRAND 1 23 Feb 05:55:49 06:00:39 43° 67° (ENE) 06:05:31 437.568
HO-68 23 Feb 06:04:42 06:07:13 12° 83° (E) 06:09:43 435.675
KAITUO 1B 23 Feb 06:27:52 06:31:39 65° 101° (ESE) 06:35:22 145.475/437.950
XW-2F 23 Feb 06:28:25 06:32:17 78° 104° (ESE) 06:36:05 145.980 - 146.000
CUTE-I 23 Feb 06:29:27 06:34:49 64° 102° (ESE) 06:40:09 437.470
XW-2D 23 Feb 06:31:33 06:35:25 89° 103° (ESE) 06:39:14 145.860 - 145.880
AO-7 23 Feb 06:33:20 06:39:15 22° 316° (NW) 06:45:08 .
XW-2B 23 Feb 06:36:32 06:40:24 83° 284° (WNW) 06:44:13 145.730 - 145.750
CUTE 1.7 + AOD 2 23 Feb 06:37:04 06:39:03 13° 88° (E) 06:41:00 437.475
DOVE 4 23 Feb 06:38:11 06:42:48 81° 284° (WNW) 06:47:40 437.250
BEESAT 3 23 Feb 06:43:39 06:47:14 35° 119° (ESE) 06:50:52 437.485
XW-2C 23 Feb 06:45:06 06:48:56 65° 286° (WNW) 06:52:43 145.795 - 145.815
SO-50 23 Feb 06:48:40 06:53:10 58° 48° (NE) 06:57:34 436.795
LilacSat-2 23 Feb 06:59:26 07:03:08 43° 289° (WNW) 07:06:47 437.200
NUDT-PHONESAT 23 Feb 07:05:58 07:09:36 45° 288° (WNW) 07:13:11 437.300
UWE-3 23 Feb 07:13:29 07:14:15 10° 85° (E) 07:15:00 435.000/436.395/437.385
PRISM 23 Feb 07:14:29 07:16:08 12° 58° (ENE) 07:17:47 437.425
BEESAT 2 23 Feb 07:16:31 07:20:05 33° 118° (ESE) 07:23:42 435.950
XW-2A 23 Feb 07:23:46 07:27:13 57° 101° (E) 07:30:37 145.665 - 145.685
AO-85 23 Feb 07:26:32 07:29:03 15° 330° (NNW) 07:31:33 145.980
AAUSAT CUBESAT 2 23 Feb 07:34:50 07:37:38 18° 91° (E) 07:40:26 437.432
STRAND 1 23 Feb 07:35:33 07:39:58 29° 266° (W) 07:44:26 437.568
SEEDS 23 Feb 07:37:35 07:41:28 36° 97° (E) 07:45:18 437.485
ZACube-1 23 Feb 07:39:24 07:40:54 11° 86° (E) 07:42:22 437.345
O/OREOS (USA 219) 23 Feb 07:40:10 07:44:00 26° 52° (NE) 07:47:50 437.305
HO-68 23 Feb 07:49:15 07:56:23 64° 103° (ESE) 08:03:27 435.675
FO-29 23 Feb 07:59:51 08:04:49 20° 49° (NE) 08:09:58 435.910
KAITUO 1B 23 Feb 08:03:27 08:05:10 13° 299° (WNW) 08:06:54 145.475/437.950
CUBEBUG 2 23 Feb 08:04:15 08:08:54 49° 99° (E) 08:13:30 437.445
XW-2F 23 Feb 08:04:39 08:05:51 11° 301° (WNW) 08:07:02 145.980 - 146.000
XW-2D 23 Feb 08:08:47 08:08:57 10° 302° (WNW) 08:09:07 145.860 - 145.880
CUTE-I 23 Feb 08:10:19 08:14:25 23° 301° (WNW) 08:18:29 437.470
CUTE 1.7 + AOD 2 23 Feb 08:11:08 08:15:22 69° 285° (WNW) 08:19:32 437.475
UNISAT 6 23 Feb 08:14:24 08:17:52 22° 62° (ENE) 08:21:24 437.425
ISS 23 Feb 08:15:24 08:17:10 14° 135° (SE) 08:18:56 437.550
TIGRISAT 23 Feb 08:15:32 08:18:56 21° 62° (ENE) 08:22:24 435.000
DOVE 4 23 Feb 08:18:04 08:19:50 12° 302° (WNW) 08:21:38 437.250
BEESAT 3 23 Feb 08:21:21 08:24:52 31° 318° (NW) 08:28:27 437.485
AO-73 23 Feb 08:27:19 08:31:22 30° 95° (E) 08:35:21 145.935
SO-50 23 Feb 08:29:51 08:33:14 21° 247° (WSW) 08:36:36 436.795
Oscar 11 23 Feb 08:37:07 08:41:02 32° 96° (E) 08:44:54 .
Tancredo 1 23 Feb 08:45:35 08:48:17 24° 141° (SE) 08:51:00 437.200
UWE-3 23 Feb 08:46:43 08:51:27 82° 105° (ESE) 08:56:06 435.000/436.395/437.385
PRISM 23 Feb 08:46:45 08:50:49 81° 254° (WSW) 08:54:56 437.425
BEESAT 2 23 Feb 08:54:14 08:57:52 33° 318° (NW) 09:01:32 435.950
XW-2A 23 Feb 08:58:06 08:59:33 12° 298° (WNW) 09:00:58 145.665 - 145.685
AAUSAT CUBESAT 2 23 Feb 09:09:24 09:13:22 47° 289° (WNW) 09:17:19 437.432
ZACube-1 23 Feb 09:13:12 09:17:51 89° 280° (W) 09:22:22 437.345
SEEDS 23 Feb 09:13:36 09:17:00 24° 295° (WNW) 09:20:23 437.485
O/OREOS (USA 219) 23 Feb 09:19:14 09:23:37 45° 251° (WSW) 09:27:59 437.305
YUBILEINY 23 Feb 09:24:10 09:31:16 29° 80° (E) 09:38:22 435.215
DELFI C3 23 Feb 09:27:50 09:31:28 35° 97° (E) 09:35:04 145.870
DUCHIFAT 1 23 Feb 09:36:22 09:38:14 13° 58° (ENE) 09:40:05 145.980
HO-68 23 Feb 09:37:34 09:43:41 32° 303° (WNW) 09:49:47 435.675
AIST 2D 23 Feb 09:40:38 09:43:12 19° 65° (ENE) 09:45:48 435.315
FO-29 23 Feb 09:41:23 09:48:29 72° 70° (ENE) 09:56:14 435.910
CUBEBUG 2 23 Feb 09:41:27 09:45:12 24° 297° (WNW) 09:48:57 437.445
EO-79 23 Feb 09:43:23 09:46:08 17° 61° (ENE) 09:48:55 145.935-145.965
ISS 23 Feb 09:49:52 09:53:09 72° 153° (SSE) 09:56:27 437.550
UNISAT 6 23 Feb 09:49:54 09:54:15 49° 261° (W) 09:58:45 437.425
TIGRISAT 23 Feb 09:50:54 09:55:16 51° 261° (W) 09:59:47 435.000
POLYITAN 1 23 Feb 09:59:22 10:02:46 24° 64° (ENE) 10:06:13 437.675
NANOSAT C BR1 23 Feb 10:01:09 10:04:29 23° 64° (ENE) 10:07:50 145.865
QB50P2 23 Feb 10:02:03 10:05:37 27° 65° (ENE) 10:09:13 145.880/145.840
AO-73 23 Feb 10:03:29 10:07:35 33° 293° (WNW) 10:11:38 145.935
Oscar 11 23 Feb 10:13:21 10:17:05 29° 294° (WNW) 10:20:48 .
Tancredo 1 23 Feb 10:21:06 10:24:21 72° 339° (NNW) 10:27:37 437.200
UWE-3 23 Feb 10:24:38 10:27:16 15° 302° (WNW) 10:29:53 435.000/436.395/437.385
BUGSAT 1 23 Feb 10:41:21 10:44:20 20° 63° (ENE) 10:47:22 437.445
ZACube-1 23 Feb 10:51:18 10:53:24 13° 303° (WNW) 10:55:30 437.345
AO-85 23 Feb 10:52:59 10:53:43 10° 21° (NNE) 10:54:26 145.980
DELFI C3 23 Feb 11:03:00 11:06:05 22° 295° (WNW) 11:09:10 145.870
DUCHIFAT 1 23 Feb 11:09:04 11:13:16 83° 255° (WSW) 11:17:33 145.980
AIST 2D 23 Feb 11:12:58 11:16:14 34° 263° (W) 11:19:32 435.315
SPROUT 23 Feb 11:16:22 11:17:47 11° 87° (E) 11:19:11 437.525
EO-79 23 Feb 11:17:20 11:21:29 57° 259° (W) 11:25:42 145.935-145.965
YUBILEINY 23 Feb 11:18:27 11:27:16 73° 282° (WNW) 11:36:07 435.215
ISS 23 Feb 11:26:36 11:29:47 43° 352° (N) 11:32:58 437.550
FO-29 23 Feb 11:28:13 11:34:10 28° 272° (W) 11:40:35 435.910
50 SAT 23 Feb 11:32:14 11:33:13 11° 90° (E) 11:34:11 437.505
POLYITAN 1 23 Feb 11:34:25 11:38:23 38° 263° (W) 11:42:24 437.675
Oscar 19 23 Feb 11:35:13 11:39:30 27° 62° (ENE) 11:43:47 437.125/150
NANOSAT C BR1 23 Feb 11:36:01 11:39:59 39° 262° (W) 11:44:00 145.865
QB50P2 23 Feb 11:37:27 11:41:18 33° 264° (W) 11:45:12 145.880/145.840
ESTCUBE 1 23 Feb 11:50:36 11:55:07 85° 104° (ESE) 11:59:36 437.505/2401.250
Tancredo 1 23 Feb 11:57:50 12:00:56 39° 359° (N) 12:04:01 437.200
AO-7 23 Feb 12:01:48 12:06:36 17° 38° (NE) 12:11:23 .
Gurwin Techsat 1B 23 Feb 12:02:25 12:06:51 28° 62° (ENE) 12:11:18 435.225
BUGSAT 1 23 Feb 12:15:32 12:19:25 43° 261° (W) 12:23:22 437.445
DX 1 23 Feb 12:24:36 12:28:28 30° 96° (E) 12:32:19 434.975-435.025
VELOX 1 23 Feb 12:25:29 12:29:54 67° 103° (ESE) 12:34:18 145.980
AO-85 23 Feb 12:31:33 12:35:14 37° 44° (NE) 12:38:55 145.980
UKube-1 23 Feb 12:41:05 12:45:00 32° 97° (E) 12:48:52 .
SPROUT 23 Feb 12:49:56 12:54:16 81° 286° (WNW) 12:58:34 437.525
50 SAT 23 Feb 13:03:17 13:06:42 55° 287° (WNW) 13:10:05 437.505
ISS 23 Feb 13:03:24 13:06:37 49° 12° (NNE) 13:09:50 437.550
Oscar 19 23 Feb 13:13:37 13:18:35 48° 261° (W) 13:23:34 437.125/150
YUBILEINY 23 Feb 13:20:01 13:25:53 19° 306° (NW) 13:31:47 435.215
BEESAT 3 23 Feb 13:20:24 13:22:42 15° 29° (NNE) 13:25:01 437.485
ESTCUBE 1 23 Feb 13:29:05 13:31:17 14° 302° (WNW) 13:33:28 437.505/2401.250
Tancredo 1 23 Feb 13:34:18 13:37:33 66° 21° (NNE) 13:40:45 437.200
BEESAT 23 Feb 13:39:13 13:40:42 11° 87° (E) 13:42:10 436.000
Gurwin Techsat 1B 23 Feb 13:41:25 13:46:33 49° 261° (W) 13:51:44 435.225
ITAMSAT 1 23 Feb 13:42:39 13:47:30 40° 66° (ENE) 13:52:22 435.822/435.867
AO-7 23 Feb 13:49:34 13:57:36 54° 61° (ENE) 14:05:39 .
BEESAT 2 23 Feb 13:53:55 13:56:12 14° 28° (NNE) 13:58:30 435.950
DX 1 23 Feb 14:00:48 14:04:38 31° 294° (WNW) 14:08:27 434.975-435.025
VELOX 1 23 Feb 14:03:09 14:05:52 16° 301° (WNW) 14:08:34 145.980
AO-85 23 Feb 14:12:12 14:15:29 26° 243° (WSW) 14:18:46 145.980
UKube-1 23 Feb 14:17:14 14:20:57 29° 295° (WNW) 14:24:39 .
MOZHAYETS 4 23 Feb 14:19:29 14:19:59 10° 85° (E) 14:20:28
SPROUT 23 Feb 14:28:16 14:29:27 11° 304° (WNW) 14:30:38 437.525
ISS 23 Feb 14:39:55 14:43:07 49° 212° (SSW) 14:46:18 437.550
BEESAT 3 23 Feb 14:57:03 15:01:05 66° 50° (NE) 15:05:04 437.485
ITUPSAT 1 23 Feb 15:06:22 15:11:12 72° 104° (ESE) 15:15:59 437.325
Tancredo 1 23 Feb 15:10:51 15:13:39 27° 218° (SW) 15:16:25 437.200
BEESAT 23 Feb 15:14:22 15:19:12 86° 102° (ESE) 15:23:59 436.000
ITAMSAT 1 23 Feb 15:22:27 15:27:03 31° 265° (W) 15:31:42 435.822/435.867
BEESAT 2 23 Feb 15:30:44 15:34:47 63° 49° (NE) 15:38:48 435.950
